When you browse on this site, cookies collect data to enhance your experience and personalize the content and advertising you see.
Visit our Privacy Policy to learn more. By continuing to use the site, you agree to this use of cookies and data.
  • In Hungary
  • List of Countries
  • For 7 days
  • Water Temperature
  • Satellite Maps
  • Weather Map
  • News
  • Weather Widgets
  • user-avatar
    Login

    Hourly Weather Tlaltelulco

    Today, 20 February, Wednesday

    Time Temperature Precipitation Wind Pressure Humidity
    00:00 +14°C° 0 mm 1 mps 574 mmHg 32%
    01:00 +13°C° 0 mm 1 mps 573 mmHg 32%
    02:00 +13°C° 0 mm 1 mps 573 mmHg 32%
    03:00 +12°C° 0 mm 1 mps 573 mmHg 32%
    04:00 +12°C° 0 mm 1 mps 573 mmHg 32%
    05:00 +11°C° 0 mm 1 mps 572 mmHg 32%
    06:00 +13°C° 0 mm 1 mps 573 mmHg 30%
    07:00 +14°C° 0 mm 1 mps 574 mmHg 28%
    08:00 +16°C° 0 mm 1 mps 575 mmHg 26%
    09:00 +18°C° 0 mm 2 mps 576 mmHg 24%
    10:00 +20°C° 0 mm 2 mps 577 mmHg 22%
    11:00 +22°C° 0 mm 3 mps 578 mmHg 21%
    12:00 +22°C° 0 mm 4 mps 578 mmHg 20%
    13:00 +23°C° 0 mm 5 mps 577 mmHg 20%
    14:00 +24°C° 0 mm 6 mps 577 mmHg 20%
    15:00 +23°C° 0 mm 6 mps 577 mmHg 22%
    16:00 +21°C° 0 mm 6 mps 576 mmHg 25%
    17:00 +20°C° 0 mm 5 mps 575 mmHg 27%
    18:00 +19°C° 0 mm 4 mps 575 mmHg 31%
    19:00 +17°C° 0 mm 3 mps 575 mmHg 35%
    20:00 +16°C° 0 mm 2 mps 575 mmHg 38%
    21:00 +15°C° 0 mm 2 mps 575 mmHg 41%
    22:00 +15°C° 0 mm 2 mps 575 mmHg 43%
    23:00 +14°C° 0 mm 1 mps 575 mmHg 45%

    Tomorrow, 21 February, Thursday

    Time Temperature Precipitation Wind Pressure Humidity
    00:00 +14°C° 0 mm 2 mps 574 mmHg 50%
    01:00 +13°C° 0 mm 2 mps 574 mmHg 54%
    02:00 +12°C° 0 mm 2 mps 573 mmHg 59%
    03:00 +12°C° 0 mm 2 mps 573 mmHg 60%
    04:00 +11°C° 0 mm 1 mps 573 mmHg 62%
    05:00 +11°C° 0 mm 1 mps 573 mmHg 63%
    06:00 +12°C° 0 mm 1 mps 574 mmHg 56%
    07:00 +14°C° 0 mm 2 mps 575 mmHg 50%
    08:00 +15°C° 0 mm 2 mps 576 mmHg 43%
    09:00 +17°C° 0 mm 2 mps 577 mmHg 37%
    10:00 +20°C° 0 mm 3 mps 578 mmHg 31%
    11:00 +22°C° 0 mm 4 mps 578 mmHg 25%
    12:00 +22°C° 0 mm 4 mps 578 mmHg 22%
    13:00 +23°C° 0 mm 5 mps 578 mmHg 20%
    14:00 +25°C° 0 mm 5 mps 577 mmHg 17%
    15:00 +23°C° 0 mm 5 mps 577 mmHg 19%
    16:00 +22°C° 0 mm 5 mps 576 mmHg 21%
    17:00 +21°C° 0 mm 5 mps 576 mmHg 22%
    18:00 +19°C° 0 mm 4 mps 576 mmHg 27%
    19:00 +17°C° 0 mm 3 mps 575 mmHg 32%
    20:00 +15°C° 0 mm 2 mps 575 mmHg 36%
    21:00 +15°C° 0 mm 1 mps 575 mmHg 38%
    22:00 +14°C° 0 mm 1 mps 575 mmHg 41%
    23:00 +13°C° 0 mm 0 mps 575 mmHg 43%

    Day after tomorrow, 22 February, Friday

    Time Temperature Precipitation Wind Pressure Humidity
    00:00 +13°C° 0 mm 0 mps 574 mmHg 44%
    01:00 +13°C° 0 mm 1 mps 574 mmHg 46%
    02:00 +13°C° 0 mm 1 mps 573 mmHg 48%
    03:00 +11°C° 0 mm 0 mps 573 mmHg 48%
    04:00 +11°C° 0 mm 0 mps 573 mmHg 49%
    05:00 +10°C° 0 mm 0 mps 573 mmHg 49%
    06:00 +12°C° 0 mm 0 mps 575 mmHg 43%
    07:00 +14°C° 0 mm 0 mps 576 mmHg 37%
    08:00 +16°C° 0 mm 0 mps 578 mmHg 31%
    09:00 +20°C° 0 mm 1 mps 578 mmHg 26%
    10:00 +21°C° 0 mm 2 mps 579 mmHg 21%
    11:00 +24°C° 0 mm 2 mps 580 mmHg 17%
    12:00 +24°C° 0 mm 3 mps 579 mmHg 17%
    13:00 +25°C° 0 mm 3 mps 579 mmHg 16%
    14:00 +25°C° 0 mm 3 mps 578 mmHg 16%
    15:00 +23°C° 0 mm 4 mps 578 mmHg 20%
    16:00 +22°C° 0 mm 4 mps 577 mmHg 23%
    17:00 +21°C° 0 mm 4 mps 577 mmHg 27%
    18:00 +20°C° 0 mm 3 mps 577 mmHg 31%
    19:00 +18°C° 0 mm 2 mps 577 mmHg 35%
    20:00 +16°C° 0 mm 1 mps 577 mmHg 40%
    21:00 +16°C° 0 mm 1 mps 577 mmHg 41%
    22:00 +14°C° 0 mm 0 mps 576 mmHg 43%
    23:00 +14°C° 0 mm 0 mps 576 mmHg 44%

    23 February, Saturday

    Time Temperature Precipitation Wind Pressure Humidity
    00:00 +13°C° 0 mm 0 mps 576 mmHg 45%
    01:00 +14°C° 0 mm 1 mps 575 mmHg 47%
    02:00 +13°C° 0 mm 1 mps 575 mmHg 48%
    03:00 +13°C° 0 mm 1 mps 575 mmHg 49%
    04:00 +12°C° 0 mm 0 mps 575 mmHg 50%
    05:00 +11°C° 0 mm 0 mps 575 mmHg 52%
    06:00 +13°C° 0 mm 0 mps 576 mmHg 49%
    07:00 +15°C° 0 mm 1 mps 577 mmHg 46%
    08:00 +18°C° 0 mm 1 mps 579 mmHg 43%
    09:00 +20°C° 0 mm 1 mps 579 mmHg 39%
    10:00 +21°C° 0 mm 1 mps 580 mmHg 36%
    11:00 +23°C° 0 mm 1 mps 580 mmHg 33%
    12:00 +24°C° 0 mm 1 mps 580 mmHg 31%
    13:00 +24°C° 0 mm 2 mps 579 mmHg 29%
    14:00 +24°C° 0 mm 3 mps 579 mmHg 27%
    15:00 +22°C° 0 mm 3 mps 579 mmHg 30%
    16:00 +21°C° 0 mm 2 mps 578 mmHg 33%
    17:00 +20°C° 0 mm 2 mps 578 mmHg 36%
    18:00 +19°C° 0 mm 2 mps 578 mmHg 40%
    19:00 +18°C° 0 mm 2 mps 579 mmHg 45%
    20:00 +17°C° 0 mm 2 mps 579 mmHg 49%
    21:00 +16°C° 0 mm 2 mps 579 mmHg 56%
    22:00 +15°C° 0 mm 2 mps 578 mmHg 63%
    23:00 +14°C° 0 mm 2 mps 578 mmHg 69%

    24 February, Sunday

    Time Temperature Precipitation Wind Pressure Humidity
    00:00 +14°C° 0 mm 2 mps 578 mmHg 73%
    01:00 +13°C° 0 mm 2 mps 577 mmHg 77%
    02:00 +13°C° 0 mm 1 mps 576 mmHg 81%
    03:00 +13°C° 0 mm 1 mps 576 mmHg 82%
    04:00 +12°C° 0 mm 2 mps 576 mmHg 82%
    05:00 +12°C° 0 mm 2 mps 577 mmHg 83%
    06:00 +13°C° 0 mm 2 mps 577 mmHg 77%
    07:00 +14°C° 0 mm 2 mps 578 mmHg 71%
    08:00 +15°C° 0 mm 2 mps 579 mmHg 65%
    09:00 +17°C° 0 mm 2 mps 580 mmHg 58%
    10:00 +19°C° 0 mm 2 mps 580 mmHg 50%
    11:00 +21°C° 0 mm 2 mps 581 mmHg 42%
    12:00 +21°C° 0 mm 3 mps 580 mmHg 41%
    13:00 +22°C° 0 mm 3 mps 580 mmHg 40%
    14:00 +22°C° 0 mm 3 mps 579 mmHg 39%
    15:00 +21°C° 0.5 mm 3 mps 579 mmHg 43%
    16:00 +20°C° 0.5 mm 3 mps 579 mmHg 46%
    17:00 +20°C° 0.5 mm 3 mps 578 mmHg 50%
    18:00 +18°C° 0.6 mm 3 mps 578 mmHg 57%
    19:00 +17°C° 0.6 mm 2 mps 578 mmHg 63%
    20:00 +16°C° 0.6 mm 1 mps 578 mmHg 69%
    21:00 +16°C° 0.3 mm 1 mps 578 mmHg 72%
    22:00 +15°C° 0.3 mm 1 mps 578 mmHg 75%
    23:00 +15°C° 0.3 mm 1 mps 578 mmHg 78%

    25 February, Monday

    Time Temperature Precipitation Wind Pressure Humidity
    00:00 +14°C° 0 mm 1 mps 577 mmHg 79%
    01:00 +14°C° 0 mm 1 mps 577 mmHg 81%
    02:00 +13°C° 0 mm 1 mps 576 mmHg 82%
    03:00 +12°C° 0 mm 0 mps 576 mmHg 83%
    04:00 +12°C° 0 mm 0 mps 576 mmHg 84%
    05:00 +11°C° 0 mm 0 mps 576 mmHg 85%
    06:00 +14°C° 0 mm 1 mps 577 mmHg 78%
    07:00 +15°C° 0 mm 1 mps 578 mmHg 71%
    08:00 +16°C° 0 mm 1 mps 579 mmHg 64%
    09:00 +19°C° 0 mm 1 mps 579 mmHg 56%
    10:00 +20°C° 0 mm 2 mps 580 mmHg 48%
    11:00 +21°C° 0 mm 2 mps 580 mmHg 40%
    12:00 +22°C° 0.1 mm 3 mps 580 mmHg 38%
    13:00 +22°C° 0.1 mm 3 mps 579 mmHg 37%
    14:00 +23°C° 0.1 mm 4 mps 579 mmHg 35%
    15:00 +22°C° 0.3 mm 3 mps 579 mmHg 38%
    16:00 +21°C° 0.3 mm 3 mps 578 mmHg 42%
    17:00 +20°C° 0.3 mm 3 mps 578 mmHg 45%
    18:00 +19°C° 0.3 mm 2 mps 578 mmHg 49%
    19:00 +18°C° 0.3 mm 2 mps 578 mmHg 54%
    20:00 +18°C° 0.3 mm 1 mps 578 mmHg 59%
    21:00 +16°C° 0.2 mm 1 mps 578 mmHg 61%
    22:00 +16°C° 0.2 mm 1 mps 578 mmHg 64%
    23:00 +15°C° 0.2 mm 1 mps 578 mmHg 66%
    Show more